Powrót do katalogu

SL-14 DEB

AktywnyPO
NORAD 45356·DEBRIS·🇷🇺 Russia

Wystrzelony Aug 15, 1991 z Plesetsk Cosmodrome

Loading…

Następne Przeloty (najbliższe 24 godziny)

TLE

ŚwieżeSource: Space-Track

Epoka: Sep 14, 2026, 10:49 UTC

1 45356U 91056CQ  26257.45081729  .00000308  00000-0  65660-3 0  9999
2 45356  82.6105  63.5126 0041809 100.0574 260.5275 13.27013999316279

Śledź SL-14 DEB w czasie rzeczywistym z AllMySat

Download on the App Store